Probability
15 16 23 40 63 81 90 93 95 95 94 91 84 74 66 57 46 38 34 32 30 31 35 34 29 24 20 15 10 6 2 0 0 0 0 0 0 0 0 0 0 0 0
22 21 26 40 59 75 85 91 95 95 95 91 82 70 60 49 39 33 30 28 27 27 27 24 19 16 13 10 8 5 2 0 0 0 0 0 0 0 0 0 0 0 0
38 35 36 46 58 70 79 87 93 96 94 87 76 65 54 42 32 26 22 19 18 17 14 11 9 7 7 6 4 2 1 1 0 0 0 0 0 0 0 0 0 0 0
56 54 54 58 63 70 78 86 91 94 91 80 70 63 52 40 28 19 14 10 7 6 5 4 4 5 5 3 1 0 0 0 0 0 0 0 0 0 0 0 0 0 0
66 66 68 69 69 72 78 84 87 88 84 75 66 59 49 35 22 13 8 4 1 1 1 2 3 4 3 1 0 0 0 0 0 0 0 0 0 0 0 0 0 0 0
57 61 66 66 66 69 72 74 74 73 69 62 54 48 39 27 15 8 4 2 0 0 0 1 2 2 1 0 0 0 0 0 0 0 0 0 0 0 0 0 0 0 0
38 43 47 48 50 53 55 54 51 48 44 39 33 30 24 16 9 4 2 1 0 0 0 0 1 1 0 0 0 0 0 0 0 0 0 0 0 0 0 0 0 0 0
24 25 27 27 27 30 33 31 26 23 22 20 17 14 11 7 4 2 0 0 0 0 0 0 0 0 0 0 0 0 0 0 0 0 0 0 0 0 0 0 0 0 0
12 12 12 11 10 10 13 13 11 10 10 9 8 6 4 4 2 1 0 0 0 0 0 0 0 0 0 0 0 0 0 0 0 0 0 0 0 0 0 0 0 0 0
3 3 3 3 2 2 3 4 4 4 4 4 3 3 2 2 2 1 0 0 0 0 0 0 0 0 0 0 0 0 0 0 0 0 0 0 0 0 0 0 0 0 0
0 0 0 0 0 0 0 1 1 1 1 1 1 1 1 1 1 0 0 0 0 0 0 0 0 0 0 0 0 0 0 0 0 0 0 0 0 0 0 0 0 0 0
0 0 0 0 0 0 0 0 0 0 0 0 0 0 0 0 0 0 0 0 0 0 0 0 0 0 0 0 0 0 0 0 0 0 0 0 0 0 0 0 0 0 0
0 0 0 0 0 0 0 0 0 0 0 0 0 0 0 0 0 0 0 0 0 0 0 0 0 0 0 0 0 0 0 0 0 0 0 0 0 0 0 0 0 0 0
0 0 0 0 0 0 0 0 0 0 0 0 0 0 0 0 0 0 0 0 0 0 0 0 0 0 0 0 0 0 0 0 0 0 0 0 0 0 0 0 0 0 0
0 0 0 0 0 0 0 0 0 0 0 0 0 0 0 0 0 0 0 0 0 0 0 0 0 0 0 0 0 0 0 0 0 0 0 0 0 0 0 0 0 0 0
0 0 0 0 0 0 0 0 0 0 0 0 0 0 0 0 0 0 0 0 0 0 0 0 0 0 0 0 0 0 0 0 0 0 0 0 0 0 0 0 0 0 0
0 0 0 0 0 0 0 0 0 0 0 0 0 0 0 0 0 0 0 0 0 0 0 0 0 0 0 0 0 0 0 0 0 0 0 0 0 0 0 0 0 0 0
0 0 0 0 0 0 0 0 0 0 0 0 0 0 0 0 0 0 0 0 0 0 0 0 0 0 0 0 0 0 0 0 0 0 0 0 0 0 0 0 0 0 0
0 0 0 0 0 0 0 0 0 0 0 0 0 0 0 0 0 0 0 0 0 0 0 0 0 0 0 0 0 0 0 0 0 0 0 0 0 0 0 0 0 0 0
0 0 0 0 0 0 0 0 0 0 0 0 0 0 0 0 0 0 0 0 0 0 0 0 0 0 0 0 0 0 0 0 0 0 0 0 0 0 0 0 0 0 0
0 0 0 0 0 0 0 0 0 0 0 0 0 0 0 0 0 0 0 0 0 0 0 0 0 0 0 0 0 0 0 0 0 0 0 0 0 0 0 0 0 0 0
0 0 0 0 0 0 0 0 0 0 0 0 0 0 0 0 0 0 0 0 0 0 0 0 0 0 0 0 0 0 0 0 0 0 0 0 0 0 0 0 0 0 0
0 0 0 0 0 0 0 0 0 0 0 0 0 0 0 0 0 0 0 0 0 0 0 0 0 0 0 0 0 0 0 0 0 0 0 0 0 0 0 0 0 0 0
0 0 0 0 0 0 0 0 0 0 0 0 0 0 0 0 0 0 0 0 0 0 0 0 0 0 0 0 0 0 0 0 0 0 0 0 0 0 0 0 0 0 0
0 0 0 0 0 0 0 0 0 0 0 0 0 0 0 0 0 0 0 0 0 0 0 0 0 0 0 0 0 0 0 0 0 0 0 0 0 0 0 0 0 0 0
0 0 0 0 0 0 0 0 0 0 0 0 0 0 0 0 0 0 0 0 0 0 0 0 0 0 0 0 0 0 0 0 0 0 0 0 0 0 0 0 0 0 0
Wind_Speed
6 6 9 12 13 14 15 15 15 15 12 10 9 8 6 5 4 3 3 3 2 2 2 2 3 2 2 3 4 3 4 2 1 2 2 1 1 0 1 1 1 1 0
5 4 6 10 13 14 15 15 16 15 14 10 8 7 7 5 4 4 4 4 3 3 3 3 3 3 3 4 4 3 2 2 2 2 2 3 4 4 3 3 3 3 3
6 5 3 5 8 11 14 13 14 15 14 13 9 8 6 5 4 4 3 3 3 3 3 3 3 4 4 4 4 4 4 3 2 1 2 4 4 2 4 4 4 4 4
7 6 4 1 2 5 8 11 12 12 13 14 12 13 9 7 5 5 5 5 5 4 3 3 3 3 3 4 4 3 2 2 2 2 0 2 3 3 3 5 6 6 6
9 8 7 6 5 3 5 8 10 11 12 12 12 10 8 6 6 6 8 7 6 5 5 5 4 4 4 4 4 3 2 1 0 0 1 0 2 4 5 5 4 6 6
10 10 11 10 9 8 7 8 10 9 9 9 8 8 9 9 9 8 7 6 5 5 6 6 5 5 5 5 5 4 4 3 2 1 1 2 3 4 5 7 7 7 6
11 11 12 13 12 12 11 11 11 10 9 9 7 7 8 9 9 8 8 7 6 6 6 6 6 5 5 5 4 4 3 3 2 1 1 2 3 4 5 7 8 9 8
12 13 13 13 13 14 13 13 13 12 11 11 10 9 9 7 7 8 8 8 7 7 7 7 7 7 6 5 4 3 3 2 1 1 2 3 4 4 5 6 8 10 10
12 13 14 14 14 14 14 14 14 13 13 12 12 11 10 10 11 10 9 8 8 7 8 8 7 7 6 5 4 3 2 1 1 1 2 4 4 5 6 6 8 10 11
12 13 13 13 13 13 13 14 14 14 13 13 11 10 12 11 11 10 10 10 9 8 8 8 7 7 6 5 3 3 2 1 1 2 4 5 5 5 6 7 7 8 10
11 11 12 12 12 13 13 14 14 14 13 13 13 13 12 12 11 11 10 9 9 8 8 7 7 6 5 4 3 3 2 2 3 4 5 5 6 7 7 7 7 8 9
11 11 12 12 13 13 13 13 13 13 13 13 13 13 12 12 12 11 10 9 9 8 8 7 7 6 5 4 3 3 3 3 4 5 6 7 6 7 8 7 8 8 9
11 11 11 11 12 12 12 12 12 12 12 12 12 12 12 12 11 11 10 9 9 8 7 6 6 5 4 4 3 3 4 4 5 6 7 7 8 8 8 9 9 8 8
11 11 11 11 11 11 11 11 11 11 11 11 12 12 11 11 10 10 9 8 8 7 6 6 6 4 3 3 4 4 4 5 6 6 7 8 8 9 9 9 9 9 10
11 11 11 10 10 10 10 10 10 10 10 11 11 11 10 9 9 9 8 7 7 7 6 5 3 2 2 6 7 7 7 7 8 8 8 7 8 10 9 9 10 10 9
11 11 11 10 10 9 9 9 10 9 9 10 10 9 9 8 8 8 7 7 6 5 4 3 3 3 5 7 8 10 9 8 9 9 8 8 8 7 9 12 14 14 13
11 11 10 9 9 9 9 9 9 9 9 9 9 8 8 7 7 6 6 5 4 4 3 3 3 3 7 5 7 9 11 10 8 8 8 8 7 8 9 9 12 14 15
11 10 9 9 9 9 9 9 9 9 9 8 7 7 7 7 6 6 5 4 3 3 3 3 4 3 5 5 8 13 12 9 8 8 8 8 9 7 9 12 13 13 10
10 9 9 9 9 9 9 9 9 8 8 8 7 6 6 6 5 5 5 4 3 3 3 3 4 5 3 5 8 13 10 7 8 8 7 7 8 7 10 12 13 13 10
9 9 9 9 9 8 8 9 8 8 7 7 6 6 6 5 5 5 4 4 3 3 3 3 4 5 5 4 5 12 8 7 8 8 7 3 5 9 11 12 12 12 11
10 10 9 9 8 7 7 8 8 7 7 6 6 6 5 5 4 4 3 3 3 3 4 4 3 3 4 2 2 8 8 8 9 8 7 5 6 11 12 12 10 10 12
10 9 9 9 8 7 7 7 8 7 6 5 5 5 4 3 3 2 2 3 3 3 3 4 4 4 3 3 4 6 8 9 9 7 7 7 10 13 13 10 8 12 12
10 9 9 9 7 6 6 7 6 5 4 4 4 4 3 3 3 3 3 2 3 3 4 4 5 5 5 3 3 7 9 9 9 7 9 11 12 13 8 6 10 10 6
9 8 9 8 8 7 6 6 5 3 3 3 3 2 2 2 2 3 4 4 5 5 5 5 6 6 6 6 8 9 8 8 8 8 8 9 9 8 7 7 6 5 5
8 7 7 8 8 7 6 5 4 3 3 2 1 1 2 3 2 3 5 6 7 7 7 7 7 6 7 8 11 9 8 8 9 10 7 6 6 7 7 7 7 6 6
8 7 7 7 7 6 5 5 4 3 2 1 1 2 2 2 3 2 3 5 4 3 1 3 6 6 6 9 10 11 11 11 12 8 5 6 7 7 7 8 7 7 7
Wind_Direction
257 238 218 209 201 197 194 191 190 183 179 175 172 167 164 154 142 140 149 169 190 203 199 181 156 158 157 147 154 159 164 174 198 216 209 187 211 294 219 249 241 174 235
292 268 231 209 204 200 198 193 191 183 181 173 166 163 151 148 156 157 158 158 184 185 168 167 177 170 156 155 167 178 196 171 201 246 247 239 209 207 209 218 220 238 240
322 316 271 226 210 204 200 196 190 182 175 159 151 143 138 144 157 157 142 128 135 130 127 159 168 166 164 162 171 187 203 188 172 258 259 264 268 204 188 219 235 244 263
359 1 9 20 203 199 193 188 180 172 162 159 161 163 165 167 161 146 126 111 102 107 122 130 136 144 141 144 159 149 169 179 181 165 283 323 336 290 258 210 217 233 249
23 27 33 49 62 89 137 150 150 149 154 160 162 164 155 143 133 128 123 119 110 107 107 104 104 105 105 108 106 106 92 101 63 133 150 242 253 258 273 278 260 246 247
42 47 51 58 64 74 94 115 122 126 136 139 144 148 142 137 133 131 130 121 109 103 102 104 101 100 102 105 103 101 94 71 62 23 308 267 275 276 279 281 278 277 276
52 53 53 55 57 62 71 84 93 95 100 105 104 112 120 123 125 127 125 120 112 105 103 102 98 95 93 93 93 89 86 85 85 312 302 297 294 304 294 289 291 291 286
56 54 53 54 55 58 64 72 77 79 81 84 85 87 94 102 105 107 112 111 109 107 109 105 102 100 100 97 93 99 94 91 84 339 323 299 296 301 295 295 297 291 285
59 57 55 55 56 58 61 69 76 77 79 83 86 87 90 93 99 103 105 105 107 109 105 103 101 98 95 94 97 91 83 78 346 308 294 296 304 292 295 292 287 291 294
66 60 57 58 59 63 66 68 72 75 76 78 80 84 87 91 97 99 98 99 98 101 105 104 101 98 96 96 93 99 74 23 351 329 322 309 306 308 290 286 288 287 288
72 67 64 63 65 67 69 71 72 73 74 76 79 81 83 86 90 91 93 95 97 99 100 100 98 95 90 83 73 57 42 349 335 321 315 311 312 304 305 295 289 286 287
83 78 73 70 67 67 67 69 70 73 76 79 81 83 84 85 86 88 89 92 92 93 94 96 95 90 82 74 61 32 9 345 332 324 314 307 305 302 293 298 295 293 295
95 88 80 73 70 70 70 70 71 74 77 82 84 83 83 83 84 85 85 86 87 87 88 89 86 80 73 63 44 14 352 337 326 319 312 309 306 300 302 302 296 296 295
102 95 89 83 79 76 75 75 74 77 79 81 81 80 78 80 82 82 81 80 82 83 79 77 76 74 64 41 14 353 337 324 317 311 305 301 302 302 305 296 294 297 300
101 97 95 92 87 83 80 80 78 78 83 85 83 81 81 82 81 79 78 77 75 77 76 77 78 68 58 33 1 337 328 323 315 310 306 303 306 302 297 302 308 306 300
102 99 97 94 91 89 89 88 86 85 88 88 87 85 83 83 83 83 81 79 76 76 74 65 48 33 50 44 4 333 325 317 312 314 312 304 283 283 276 274 281 289 292
102 98 94 92 93 93 95 94 94 93 91 89 88 89 90 88 87 86 84 81 78 71 55 41 28 45 73 37 354 338 314 308 313 312 309 307 314 304 307 301 286 276 262
103 103 103 99 97 98 97 98 97 95 93 94 95 94 94 91 85 81 76 69 59 47 35 21 11 9 68 40 351 332 302 304 310 308 306 305 310 336 334 316 304 299 297
102 103 104 105 106 106 107 106 102 102 103 101 98 95 92 89 85 78 70 55 39 30 12 17 1 352 52 49 353 331 314 315 316 313 309 309 315 357 329 306 300 303 308
104 106 108 108 107 111 116 112 111 109 103 98 93 87 82 77 72 67 55 49 28 17 1 14 356 350 6 54 354 332 318 325 322 319 316 310 327 329 315 307 306 311 319
110 112 113 109 110 114 112 107 103 98 97 97 90 81 77 75 66 59 45 27 13 13 359 358 355 358 0 31 28 337 327 329 318 314 316 337 349 321 311 303 305 315 310
117 118 113 108 109 112 111 105 98 99 103 99 91 81 65 51 61 46 24 2 347 349 359 356 349 351 350 353 1 321 309 308 308 311 322 337 333 316 305 303 315 307 300
118 118 115 112 111 109 101 96 96 98 100 99 87 74 62 50 26 2 0 348 346 354 356 352 349 347 348 0 330 314 309 304 308 319 319 310 306 305 300 294 297 298 315
119 119 116 112 107 101 93 87 84 79 86 86 77 62 39 40 41 356 3 4 5 2 357 355 350 345 342 356 354 342 333 328 321 325 314 300 296 305 321 316 313 326 349
117 115 108 105 104 100 91 82 74 63 64 69 52 25 37 35 20 35 34 11 38 23 352 352 349 344 341 357 340 327 329 330 331 324 323 344 350 351 349 345 347 350 352
118 112 108 107 104 100 90 76 60 43 20 8 5 5 20 20 5 30 105 93 53 108 62 352 339 339 353 334 328 328 325 321 321 322 345 354 350 347 343 344 346 351 353